Date,TemperatureHighF,TemperatureAvgF,TemperatureLowF,DewpointHighF,DewpointAvgF,DewpointLowF,HumidityHigh,HumidityAvg,HumidityLow,PressureMaxIn,PressureMinIn,WindSpeedMaxMPH,WindSpeedAvgMPH,GustSpeedMaxMPH,PrecipitationSumIn
2014-1-1,38.2,30.7,23.0,26.0,22.0,15.9,77,70,59,30.88,30.67,2,0,5,0.00
2014-1-2,39.6,26.6,19.9,22.2,16.9,12.4,79,67,45,30.92,30.76,2,0,3,0.00
2014-1-3,39.4,29.0,19.6,21.9,16.2,11.0,69,59,36,30.76,30.35,2,0,4,0.00
2014-1-4,32.7,25.8,15.2,22.9,13.6,5.0,88,60,43,30.72,30.30,12,3,20,0.00
2014-1-5,28.8,20.5,11.4,9.0,6.4,2.9,68,54,40,31.08,30.73,6,2,12,0.00
2014-1-6,29.0,18.7,10.2,13.6,7.0,2.4,71,60,42,31.19,30.94,1,0,3,0.00
2014-1-7,40.7,28.4,19.0,22.6,15.9,9.0,68,59,36,30.93,30.62,2,0,6,0.00
2014-1-8,34.5,30.4,25.3,30.5,24.7,19.7,93,79,66,30.61,30.53,2,0,4,0.01
2014-1-9,36.4,28.0,25.6,30.2,25.4,21.9,94,90,78,30.59,30.41,8,1,16,0.00
2014-1-10,42.4,33.6,24.8,29.3,24.7,22.0,90,72,51,30.65,30.51,8,1,14,0.00
2014-1-11,45.3,37.2,28.2,30.4,26.5,21.9,79,66,47,30.65,30.23,7,0,14,0.00
2014-1-12,43.9,32.5,27.7,31.1,21.2,14.7,91,64,51,30.82,30.17,16,4,27,0.04
2014-1-13,40.2,31.7,23.2,24.6,20.2,14.4,72,63,51,30.97,30.81,8,3,14,0.00
2014-1-14,38.2,28.7,21.2,24.3,20.1,16.4,82,70,55,31.15,30.92,2,0,4,0.00
2014-1-15,37.0,26.8,18.6,24.1,18.8,14.3,83,72,55,31.13,30.99,2,0,5,0.00
2014-1-16,38.7,27.3,19.6,21.0,16.4,12.3,75,64,41,31.06,30.97,3,0,4,0.00
2014-1-17,39.2,26.8,19.0,19.7,15.0,10.5,75,61,44,31.00,30.85,2,0,5,0.00
2014-1-18,40.9,28.6,20.3,21.4,16.0,11.1,69,60,44,30.95,30.84,2,0,3,0.00
2014-1-19,42.5,29.6,21.6,21.1,17.2,13.4,72,61,39,30.89,30.75,1,0,4,0.00
2014-1-20,44.4,31.5,23.8,23.2,18.3,14.6,69,59,40,30.99,30.75,2,0,5,0.00
2014-1-21,44.5,29.4,20.0,19.3,15.3,10.4,70,56,29,31.01,30.80,2,0,3,0.00
2014-1-22,39.7,28.3,20.5,19.8,15.3,11.0,68,58,38,30.79,30.52,3,1,8,0.00
2014-1-23,38.6,27.4,20.0,22.6,15.1,5.3,76,61,41,31.04,30.57,6,1,9,0.00
2014-1-24,35.4,22.9,13.4,13.0,7.8,2.5,64,53,30,31.16,31.05,2,0,5,0.00
2014-1-25,36.4,25.3,16.9,17.1,10.9,6.3,66,55,31,31.07,30.82,2,0,3,0.00
2014-1-26,40.9,27.7,18.6,18.9,13.0,9.5,68,55,34,30.82,30.61,2,0,4,0.00
2014-1-27,45.8,31.6,19.3,20.2,15.5,10.5,69,52,34,30.64,30.55,6,1,12,0.00
2014-1-28,38.1,29.4,21.4,23.1,18.7,14.4,77,65,52,30.77,30.63,3,0,5,0.00
2014-1-29,41.0,33.6,25.7,35.4,23.0,16.9,87,65,49,30.75,30.21,7,0,9,0.04
2014-1-30,37.0,31.7,29.4,33.5,29.8,27.6,94,93,87,30.27,30.14,9,2,17,0.32
2014-1-31,33.0,29.0,23.8,29.2,25.8,20.2,94,88,77,30.33,30.16,2,0,5,0.00